EW6571 Weather Reports


Display with metric or nautical units.
time (UTC)temp
F
wind
direction
speed
MPH
gust
MPH
rain 1hr
in
rain 24hr
in
rain mn
in
humidity
%
barometer
mb
20260510204526 69 302 0.0 11.0 0.00 0.00 0.00 24 1015.2
20260510203025 69 146 3.0 10.0 0.00 0.00 0.00 27 1015.4
20260510201523 69 172 0.0 9.0 0.00 0.00 0.00 26 1015.5
20260510200020 68 248 2.0 9.0 0.00 0.00 0.00 29 1015.9
20260510194526 68 217 3.0 11.0 0.00 0.00 0.00 28 1016.0
20260510193017 67 200 0.0 7.0 0.00 0.00 0.00 28 1016.1
20260510191517 67 106 1.0 10.0 0.00 0.00 0.00 28 1016.3
20260510190030 66 221 0.0 11.0 0.00 0.00 0.00 29 1016.5
20260510184513 67 98 0.0 12.0 0.00 0.00 0.00 30 1016.6
20260510183012 65 305 0.0 0.0 0.00 0.00 0.00 30 1016.9
20260510181509 64 305 0.0 0.0 0.00 0.00 0.00 28 1017.0
20260510180009 64 197 0.0 1.0 0.00 0.00 0.00 32 1017.2
20260510174505 63 244 0.0 8.0 0.00 0.00 0.00 29 1017.3
20260510173005 63 155 0.0 8.0 0.00 0.00 0.00 29 1017.5
20260510171502 62 221 0.0 6.0 0.00 0.00 0.00 32 1017.6
20260510170059 61 303 0.0 1.0 0.00 0.00 0.00 39 1017.6
20260510164607 59 61 0.0 0.0 0.00 0.00 0.00 40 1017.6
20260510163125 58 296 1.0 5.0 0.00 0.00 0.00 41 1017.7
20260510161548 57 44 0.0 0.0 0.00 0.00 0.00 44 1017.9
20260510160045 55 235 0.0 0.0 0.00 0.00 0.00 46 1017.9
20260510154539 52 235 0.0 0.0 0.00 0.00 0.00 50 1018.0
20260510153053 51 234 0.0 0.0 0.00 0.00 0.00 53 1018.1
20260510151534 50 234 0.0 0.0 0.00 0.00 0.00 55 1018.2
20260510150036 48 196 0.0 2.0 0.00 0.00 0.00 58 1018.3
20260510144529 46 195 0.0 0.0 0.00 0.00 0.00 58 1018.5
20260510143031 45 194 0.0 0.0 0.00 0.00 0.00 61 1018.4
20260510141515 43 194 0.0 0.0 0.00 0.00 0.00 69 1018.6
20260510140012 41 195 0.0 0.0 0.00 0.00 0.00 74 1018.5
20260510134509 40 195 0.0 0.0 0.00 0.00 0.00 75 1018.5
20260510133005 39 194 0.0 0.0 0.00 0.00 0.00 75 1018.5
20260510131503 36 194 0.0 0.0 0.00 0.00 0.00 77 1018.5
20260510130002 34 194 0.0 0.0 0.00 0.00 0.00 77 1018.4
20260510124606 34 194 0.0 0.0 0.00 0.00 0.00 78 1018.3
20260510123059 33 194 0.0 0.0 0.00 0.00 0.00 77 1018.3
20260510121558 33 194 0.0 1.0 0.00 0.00 0.00 77 1018.2
20260510120055 34 194 0.0 1.0 0.00 0.00 0.00 75 1018.1
20260510114552 34 194 0.0 1.0 0.00 0.00 0.00 75 1017.8
20260510113050 35 194 0.0 0.0 0.00 0.00 0.00 72 1017.7
20260510111551 35 194 0.0 0.0 0.00 0.00 0.00 73 1017.6
20260510110047 35 194 0.0 0.0 0.00 0.00 0.00 72 1017.5
20260510104550 36 194 0.0 1.0 0.00 0.00 0.00 71 1017.3
20260510103045 36 194 0.0 2.0 0.00 0.00 0.00 70 1017.2
20260510101544 35 194 0.0 1.0 0.00 0.00 0.00 71 1017.3
20260510094551 37 194 0.0 2.0 0.00 0.00 0.00 68 1017.0
20260510093038 38 194 0.0 2.0 0.00 0.00 0.00 67 1016.8
20260510091534 38 194 2.0 4.0 0.00 0.00 0.00 68 1016.6
20260510090041 37 194 0.0 0.0 0.00 0.00 0.00 68 1016.5
20260510084529 38 194 0.0 3.0 0.00 0.00 0.00 62 1016.5
20260510083030 40 194 0.0 0.0 0.00 0.00 0.00 61 1016.5
20260510081528 39 194 0.0 4.0 0.00 0.00 0.00 64 1016.3
20260510080029 40 194 0.0 0.0 0.00 0.00 0.00 62 1016.2
20260510074524 39 194 0.0 0.0 0.00 0.00 0.00 63 1016.2
20260510073021 39 194 0.0 0.0 0.00 0.00 0.00 63 1016.1
20260510071523 40 194 0.0 1.0 0.00 0.00 0.00 63 1016.0
20260510070020 40 194 0.0 3.0 0.00 0.00 0.00 63 1015.9
20260510064519 41 194 2.0 4.0 0.00 0.00 0.00 60 1015.7
20260510063013 41 194 0.0 0.0 0.00 0.00 0.00 60 1015.6
20260510061510 41 194 0.0 1.0 0.00 0.00 0.00 59 1015.2
20260510060009 42 195 0.0 0.0 0.00 0.00 0.00 60 1015.1
20260510054505 43 195 0.0 2.0 0.00 0.00 0.00 56 1014.9
20260510053006 42 195 0.0 0.0 0.00 0.00 0.00 59 1014.9
20260510051502 42 195 0.0 0.0 0.00 0.00 0.00 58 1014.7
20260510050107 43 195 0.0 0.0 0.00 0.00 0.00 57 1014.4
20260510044601 43 195 0.0 0.0 0.00 0.00 0.00 59 1014.3
20260510043111 43 195 0.0 1.0 0.00 0.00 0.00 58 1014.1
20260510041558 44 196 0.0 5.0 0.00 0.00 0.00 56 1014.0
20260510034558 45 194 1.0 5.0 0.00 0.00 0.00 56 1013.5
20260510033119 45 194 0.0 6.0 0.00 0.00 0.00 56 1013.1
20260510031556 45 195 2.0 6.0 0.00 0.00 0.00 57 1012.7
20260510030048 46 202 2.0 8.0 0.00 0.00 0.00 55 1012.4
20260510024545 48 194 4.0 7.0 0.00 0.00 0.00 52 1012.1
20260510023043 49 198 0.0 6.0 0.00 0.00 0.00 50 1011.9
20260510021540 50 209 4.0 6.0 0.00 0.00 0.00 49 1011.8
20260510020045 53 227 0.0 0.0 0.00 0.00 0.00 45 1011.7
20260510014545 57 298 0.0 0.0 0.00 0.00 0.00 36 1011.5
20260510013038 60 299 0.0 0.0 0.00 0.00 0.00 32 1011.5
20260510011541 60 301 1.0 8.0 0.00 0.00 0.00 30 1011.5
20260510010036 61 295 0.0 7.0 0.00 0.00 0.00 30 1011.4
20260510004538 59 305 0.0 3.0 0.00 0.00 0.00 31 1011.3
20260510003037 61 301 1.0 12.0 0.00 0.00 0.00 29 1011.2
20260510001534 61 298 9.0 17.0 0.00 0.00 0.00 28 1011.1
20260510000054 62 312 0.0 14.0 0.00 0.00 0.00 28 1011.0
20260509234546 61 282 3.0 13.0 0.00 0.00 0.00 28 1010.9
20260509233032 62 292 7.0 16.0 0.00 0.00 0.00 29 1010.9
20260509231528 61 300 5.0 9.0 0.00 0.00 0.00 32 1010.8
20260509230028 62 288 0.0 10.0 0.00 0.00 0.00 30 1010.8
20260509224526 60 33 3.0 9.0 0.00 0.00 0.00 33 1010.7
20260509223026 62 288 7.0 14.0 0.00 0.00 0.00 31 1010.6
20260509221523 60 296 8.0 15.0 0.00 0.00 0.00 31 1010.6
20260509220025 58 277 9.0 16.0 0.00 0.00 0.00 34 1010.7
20260509214528 59 295 12.0 18.0 0.00 0.00 0.00 34 1010.7
20260509213022 59 293 10.0 18.0 0.00 0.00 0.00 32 1010.8
20260509211520 59 309 11.0 18.0 0.00 0.00 0.00 33 1010.6
20260509210021 58 304 9.0 17.0 0.00 0.00 0.00 33 1010.6